Weather History for Columbia Airport, CA

Change the Weather History Date:

Thursday, October 17, 2013

  Actual Average (KMOD) Record (KMOD)
Temperature  
Mean Temperature 60 °F -  
Max Temperature 78 °F 79 °F 93 °F (1959)
Min Temperature 41 °F 52 °F 37 °F (1938)
Degree Days  
Heating Degree Days 6 2  
Month to date heating degree days 15  
Since 1 July heating degree days 18  
Cooling Degree Days 0 2  
Month to date cooling degree days 69  
Year to date cooling degree days 1681  
Growing Degree Days 10 (Base 50)    
Moisture  
Dew Point 30 °F    
Average Humidity 40    
Maximum Humidity 70    
Minimum Humidity 13    
Precipitation  
Precipitation 0.00 in 0.03 in 0.28 in (2004)
Month to date precipitation 0.29  
Year to date precipitation 9.32  
Since 1 July precipitation 0.57  
Snow  
Snow 0.00 in - 0.00 in (2002)
Month to date snowfall  
Since 1 July snowfall  
Since 1 September snowfall  
Snow Depth -    
Sea Level Pressure  
Sea Level Pressure 30.06 in    
Wind  
Wind Speed 2 mph (West)    
Max Wind Speed 10 mph    
Max Gust Speed 16 mph    
Visibility 10 miles    
Events      
T = Trace of Precipitation, MM = Missing Value Source: NWS Daily Summary

Daily Weather History Graph

Daily Weather History Graph

Search for Another Location

Airport:

Trip Planner

Search our weather history database for the weather conditions in past years. The results will help you decide how hot, cold, wet, or windy it might be!

Date:

Astronomy

Oct. 17, 2013 Rise Set
Actual Time 7:12 AM PDT 6:20 PM PDT
Civil Twilight 6:45 AM PDT 6:47 PM PDT
Nautical Twilight 6:15 AM PDT 7:17 PM PDT
Astronomical Twilight 5:44 AM PDT 7:48 PM PDT
Moon 5:37 PM PDT (10/17) 5:51 AM PDT (10/17)
Length of Visible Light 12h 01m
Length of Day
11h 08m
Waxing Gibbous, 98% of the Moon is Illuminated
Oct 17
Waxing Gibbous
Oct 18
Full
Oct 26
Last Quarter
Nov 3
New
Nov 9
First Quarter

Hourly Weather History & Observations

Time (PDT) Temp. Dew Point Humidity Pressure Visibility Wind Dir Wind Speed Gust Speed Precip Events Conditions
12:15 AM 46.4 °F 32.0 °F 57% 30.09 in 10.0 mi Calm Calm - N/A   Clear
12:35 AM 48.2 °F 32.0 °F 54% 30.10 in 10.0 mi Calm Calm - N/A   Clear
12:55 AM 46.4 °F 32.0 °F 57% 30.10 in 10.0 mi Calm Calm - N/A   Clear
1:15 AM 46.4 °F 32.0 °F 57% 30.09 in 10.0 mi Calm Calm - N/A   Clear
1:35 AM 46.4 °F 32.0 °F 57% 30.09 in 10.0 mi Calm Calm - N/A   Clear
1:55 AM 46.4 °F 32.0 °F 57% 30.09 in 10.0 mi Calm Calm - N/A   Clear
2:15 AM 44.6 °F 32.0 °F 61% 30.09 in 10.0 mi Calm Calm - N/A   Clear
2:35 AM 44.6 °F 32.0 °F 61% 30.09 in 10.0 mi Calm Calm - N/A   Clear
2:55 AM 44.6 °F 32.0 °F 61% 30.09 in 10.0 mi Calm Calm - N/A   Clear
3:15 AM 44.6 °F 32.0 °F 61% 30.09 in 10.0 mi Calm Calm - N/A   Clear
3:35 AM 44.6 °F 32.0 °F 61% 30.09 in 10.0 mi Calm Calm - N/A   Clear
3:55 AM 42.8 °F 32.0 °F 66% 30.08 in 10.0 mi Calm Calm - N/A   Clear
4:15 AM 42.8 °F 32.0 °F 66% 30.08 in 10.0 mi Calm Calm - N/A   Clear
4:35 AM 44.6 °F 32.0 °F 61% 30.08 in 10.0 mi Calm Calm - N/A   Clear
4:55 AM 44.6 °F 32.0 °F 61% 30.08 in 10.0 mi Calm Calm - N/A   Clear
5:15 AM 44.6 °F 32.0 °F 61% 30.08 in 10.0 mi Calm Calm - N/A   Clear
5:35 AM 44.6 °F 32.0 °F 61% 30.08 in 10.0 mi Calm Calm - N/A   Clear
5:55 AM 42.8 °F 32.0 °F 66% 30.08 in 10.0 mi Calm Calm - N/A   Clear
6:35 AM 42.8 °F 32.0 °F 66% 30.09 in 10.0 mi Calm Calm - N/A   Clear
6:55 AM 41.0 °F 32.0 °F 70% 30.09 in 10.0 mi Calm Calm - N/A   Clear
7:15 AM 42.8 °F 32.0 °F 66% 30.09 in 10.0 mi Calm Calm - N/A   Clear
7:35 AM 44.6 °F 32.0 °F 61% 30.09 in 10.0 mi Calm Calm - N/A   Clear
7:55 AM 46.4 °F 32.0 °F 57% 30.09 in 10.0 mi Calm Calm - N/A   Clear
8:15 AM 48.2 °F 33.8 °F 58% 30.10 in 10.0 mi Calm Calm - N/A   Clear
8:35 AM 53.6 °F 35.6 °F 51% 30.10 in 10.0 mi Calm Calm - N/A   Clear
8:55 AM 59.0 °F 35.6 °F 42% 30.10 in 10.0 mi Calm Calm - N/A   Clear
9:15 AM 62.6 °F 32.0 °F 32% 30.10 in 10.0 mi Calm Calm - N/A   Clear
9:35 AM 66.2 °F 32.0 °F 28% 30.10 in 10.0 mi Calm Calm - N/A   Clear
9:55 AM 68.0 °F 32.0 °F 26% 30.10 in 10.0 mi Calm Calm - N/A   Clear
10:15 AM 71.6 °F 30.2 °F 22% 30.10 in 10.0 mi NW 3.5 mph - N/A   Clear
10:35 AM 71.6 °F 30.2 °F 22% 30.10 in 10.0 mi NW 3.5 mph - N/A   Clear
10:55 AM 73.4 °F 30.2 °F 20% 30.10 in 10.0 mi West 6.9 mph - N/A   Clear
11:15 AM 73.4 °F 30.2 °F 20% 30.09 in 10.0 mi WNW 5.8 mph - N/A   Clear
11:35 AM 75.2 °F 32.0 °F 21% 30.09 in 10.0 mi WNW 5.8 mph - N/A   Clear
11:55 AM 73.4 °F 30.2 °F 20% 30.08 in 10.0 mi WSW 6.9 mph - N/A   Clear
12:15 PM 75.2 °F 30.2 °F 19% 30.08 in 10.0 mi WSW 5.8 mph - N/A   Clear
12:35 PM 77.0 °F 28.4 °F 17% 30.07 in 10.0 mi West 4.6 mph - N/A   Clear
12:55 PM 77.0 °F 28.4 °F 17% 30.06 in 10.0 mi WSW 3.5 mph - N/A   Clear
1:15 PM 77.0 °F 26.6 °F 16% 30.05 in 10.0 mi SSW 5.8 mph - N/A   Clear
1:35 PM 77.0 °F 26.6 °F 16% 30.04 in 10.0 mi West 6.9 mph - N/A   Clear
1:55 PM 78.8 °F 24.8 °F 14% 30.03 in 10.0 mi NW 9.2 mph - N/A   Clear
2:15 PM 78.8 °F 23.0 °F 13% 30.03 in 10.0 mi West 9.2 mph - N/A   Clear
2:35 PM 77.0 °F 24.8 °F 14% 30.03 in 10.0 mi West 9.2 mph - N/A   Clear
2:55 PM 77.0 °F 24.8 °F 14% 30.03 in 10.0 mi West 9.2 mph - N/A   Clear
3:15 PM 77.0 °F 24.8 °F 14% 30.02 in 10.0 mi West 6.9 mph - N/A   Clear
3:35 PM 77.0 °F 26.6 °F 16% 30.02 in 10.0 mi West 8.1 mph 16.1 mph N/A   Clear
3:55 PM 77.0 °F 26.6 °F 16% 30.02 in 10.0 mi West 8.1 mph - N/A   Clear
4:15 PM 75.2 °F 28.4 °F 18% 30.01 in 10.0 mi West 9.2 mph - N/A   Clear
4:35 PM 75.2 °F 28.4 °F 18% 30.01 in 10.0 mi West 10.4 mph - N/A   Clear
4:55 PM 73.4 °F 28.4 °F 19% 30.01 in 10.0 mi West 9.2 mph - N/A   Clear
5:15 PM 73.4 °F 28.4 °F 19% 30.01 in 10.0 mi WNW 8.1 mph - N/A   Clear
5:35 PM 71.6 °F 28.4 °F 20% 30.01 in 10.0 mi WNW 4.6 mph - N/A   Clear
5:55 PM 69.8 °F 28.4 °F 21% 30.01 in 10.0 mi WNW 3.5 mph - N/A   Clear
6:15 PM 66.2 °F 28.4 °F 24% 30.01 in 10.0 mi WNW 3.5 mph - N/A   Clear
6:35 PM 62.6 °F 28.4 °F 27% 30.01 in 10.0 mi Calm Calm - N/A   Clear
6:55 PM 62.6 °F 28.4 °F 27% 30.01 in 10.0 mi NNW 3.5 mph - N/A   Clear
7:15 PM 59.0 °F 32.0 °F 36% 30.01 in 10.0 mi Calm Calm - N/A   Clear
7:35 PM 57.2 °F 32.0 °F 38% 30.02 in 10.0 mi Calm Calm - N/A   Clear
7:55 PM 55.4 °F 32.0 °F 41% 30.02 in 10.0 mi Calm Calm - N/A   Clear
8:15 PM 53.6 °F 32.0 °F 44% 30.02 in 10.0 mi Calm Calm - N/A   Clear
8:35 PM 51.8 °F 32.0 °F 47% 30.02 in 10.0 mi Calm Calm - N/A   Clear
8:55 PM 53.6 °F 30.2 °F 41% 30.02 in 10.0 mi Calm Calm - N/A   Clear
9:15 PM 50.0 °F 30.2 °F 47% 30.02 in 10.0 mi Calm Calm - N/A   Clear
9:35 PM 50.0 °F 30.2 °F 47% 30.02 in 10.0 mi Calm Calm - N/A   Clear
9:55 PM 48.2 °F 30.2 °F 50% 30.02 in 10.0 mi Calm Calm - N/A   Clear
10:15 PM 48.2 °F 32.0 °F 54% 30.02 in 10.0 mi Calm Calm - N/A   Clear
10:35 PM 48.2 °F 30.2 °F 50% 30.02 in 10.0 mi Calm Calm - N/A   Clear
10:55 PM 48.2 °F 30.2 °F 50% 30.02 in 10.0 mi Calm Calm - N/A   Clear
11:15 PM 46.4 °F 32.0 °F 57% 30.03 in 10.0 mi Calm Calm - N/A   Clear
11:35 PM 46.4 °F 32.0 °F 57% 30.03 in 10.0 mi Calm Calm - N/A   Clear
11:55 PM 46.4 °F 32.0 °F 57% 30.03 in 10.0 mi Calm Calm - N/A   Clear